Content
SEND FEEDBACK

Daily
Averages
Monthly
Summary
United States of America

RAHWAY, NEW JERSEY


Home > North America > United States > New Jersey
Elevation: 20 feet     Latitude: 40 36N     Longitude: 074 16W

WEATHER
 
SELECT A DAY
Number of Records: 189,501;   Date Range: 1/1/95 - 7/20/14
 
SHARE

PRINT THIS DATA

[ ← Previous Day ]
WEATHER ALMANAC - SEPTEMBER 21, 2013
[ Next Day → ]
[ °C ]   °F
Weather ElementAverageHighLow
Temperature68.6 °F80.1 °F (2:51 pm)59 °F (5:51 am)
Dewpoint61.6 °F68 °F (10:46 pm)55.9 °F (5:51 am)
Humidity79.8 %94 % (10:46 pm)48 % (2:51 pm)
Barometer29.85 in30.01 in (1:51 am)29.67 in (11:51 pm)
Wind Speed7.4 mph16.1 mph (3:51 pm)
Wind Gust26.5 mph (5:51 pm)
Weather ElementAverage
Visibility9.3 mi
Wind DirectionESE (114.8 °)

Weather ElementTotal
Precipitation0.35 in
Cooling Degree Days4.6 (Base 65)
Growing Degree Days19.6 (Base 50)
Averaged from 27 records on September 21, 2013
WEATHER CONDITIONS BREAKOUT
WIND DIRECTION BREAKOUT
WEATHER BY HOUR - SEPTEMBER 21, 2013
[ °C ]   °F
Local TimeTemperatureDewpointHumidityBarometerVisibilityWind DirectionWind SpeedGust SpeedPrecipitationEventsConditions
1:51 AM61.0 °F57.0 °F87 %30.01 in10.0 miSSW (210°)4.6 mphMostly Cloudy
2:51 AM62.1 °F57.9 °F86 %29.99 in10.0 miCalmMostly Cloudy
3:51 AM61.0 °F57.9 °F90 %29.98 in10.0 miSE (140°)4.6 mphMostly Cloudy
4:51 AM61.0 °F57.0 °F87 %29.97 in10.0 miSouth (170°)3.5 mphMostly Cloudy
5:51 AM59.0 °F55.9 °F90 %29.97 in10.0 miCalmScattered Clouds
6:51 AM59.0 °F55.9 °F90 %29.97 in10.0 miCalmMostly Cloudy
7:51 AM61.0 °F57.9 °F90 %29.97 in10.0 miCalmMostly Cloudy
8:23 AM62.6 °F59.0 °F88 %29.96 in10.0 miCalmMostly Cloudy
8:51 AM64.0 °F60.1 °F87 %29.96 in10.0 miCalmMostly Cloudy
9:33 AM64.4 °F59.0 °F83 %29.94 in10.0 miCalmMostly Cloudy
9:51 AM66.0 °F61.0 °F84 %29.93 in10.0 miCalmMostly Cloudy
10:08 AM66.2 °F60.8 °F83 %29.92 in10.0 miSSE (150°)4.6 mphMostly Cloudy
10:51 AM70.0 °F63.0 °F78 %29.91 in10.0 miEast (100°)5.8 mphMostly Cloudy
11:51 AM72.0 °F64.0 °F76 %29.88 in10.0 miSE (140°)11.5 mphOvercast
12:51 PM75.9 °F64.0 °F67 %29.85 in10.0 miSouth (170°)10.4 mph18.4 mphMostly Cloudy
1:51 PM77.0 °F62.1 °F60 %29.81 in10.0 miSouth (180°)12.7 mph23.0 mphMostly Cloudy
2:51 PM80.1 °F59.0 °F48 %29.78 in10.0 miSSE (160°)13.8 mph19.6 mphMostly Cloudy
3:51 PM78.1 °F61.0 °F56 %29.76 in10.0 miSSE (150°)16.1 mph25.3 mphMostly Cloudy
4:51 PM77.0 °F62.1 °F60 %29.75 in10.0 miSouth (170°)15.0 mph25.3 mphMostly Cloudy
5:51 PM75.0 °F63.0 °F66 %29.74 in10.0 miSSE (160°)16.1 mph26.5 mphMostly Cloudy
6:51 PM73.0 °F64.9 °F76 %29.73 in10.0 miSSE (160°)12.7 mph18.4 mphOvercast
7:51 PM72.0 °F66.0 °F81 %29.73 in10.0 miSSE (160°)10.4 mphOvercast
8:51 PM72.0 °F66.0 °F81 %29.71 in10.0 miSouth (170°)11.5 mphOvercast
9:51 PM72.0 °F66.9 °F84 %29.70 in10.0 miSouth (170°)9.2 mph0.00 inOvercast
10:46 PM69.8 °F68.0 °F94 %29.69 in4.0 miSouth (180°)12.7 mph0.08 inRainLight Rain
10:51 PM70.0 °F66.9 °F90 %29.69 in4.0 miSouth (180°)11.5 mph24.2 mph0.08 inRainLight Rain
11:51 PM70.0 °F68.0 °F93 %29.67 in3.0 miSouth (180°)12.7 mph20.7 mph0.19 inRainLight Rain
Hourly data recorded from KEWR, located miles away from Rahway, New Jersey







STORIES FROM OUR PARTNERS